Temp
-12 -12 -11 -11 -11 -11 -11 -11 -11 -12 -12 -11 -12 -13 -13 -13 -13 -13 -14 -13 -12 -13 -13 -13 -13 -13 -14 -14 -13 -13 -13 -13 -13 -13 -13 -13 -13 -13 -14 -14 -14 -15 -15
-13 -12 -11 -12 -12 -11 -11 -11 -11 -11 -12 -11 -13 -13 -14 -13 -12 -12 -13 -13 -12 -12 -12 -13 -13 -14 -14 -14 -13 -13 -13 -13 -13 -13 -13 -13 -13 -14 -14 -15 -15 -15 -15
-13 -12 -12 -11 -11 -11 -12 -11 -11 -12 -12 -12 -12 -12 -12 -12 -12 -13 -13 -12 -12 -13 -13 -13 -14 -14 -14 -14 -14 -14 -13 -14 -14 -14 -14 -14 -14 -14 -14 -15 -15 -15 -15
-13 -13 -12 -12 -12 -12 -12 -12 -12 -12 -12 -12 -13 -13 -13 -13 -13 -13 -13 -13 -13 -13 -13 -13 -14 -14 -14 -14 -14 -14 -14 -14 -14 -14 -14 -14 -14 -15 -15 -15 -15 -15 -16
-13 -13 -14 -14 -14 -14 -14 -13 -14 -14 -13 -13 -13 -13 -13 -13 -13 -12 -13 -13 -13 -13 -14 -14 -14 -15 -15 -15 -14 -14 -14 -14 -15 -14 -14 -14 -15 -15 -15 -16 -16 -16 -16
-14 -14 -14 -14 -14 -14 -13 -13 -14 -13 -13 -13 -14 -13 -14 -13 -13 -13 -13 -14 -14 -15 -15 -15 -14 -15 -15 -15 -15 -15 -15 -15 -15 -15 -15 -15 -15 -15 -16 -16 -16 -16 -17
-14 -14 -14 -14 -14 -14 -14 -15 -14 -14 -15 -14 -14 -13 -14 -14 -14 -13 -13 -13 -14 -15 -15 -15 -15 -15 -15 -15 -15 -15 -15 -15 -15 -15 -15 -15 -15 -16 -16 -16 -17 -17 -17
-15 -15 -15 -15 -15 -15 -15 -15 -15 -15 -15 -14 -14 -14 -14 -13 -14 -14 -14 -14 -15 -15 -15 -15 -15 -16 -16 -16 -15 -15 -15 -15 -15 -15 -15 -16 -16 -16 -16 -17 -17 -17 -17
-14 -14 -14 -15 -15 -15 -15 -15 -15 -15 -15 -15 -15 -15 -14 -15 -15 -15 -15 -15 -16 -16 -16 -16 -16 -16 -16 -16 -16 -16 -16 -15 -16 -16 -16 -16 -16 -17 -17 -18 -18 -18 -18
-15 -15 -15 -15 -15 -15 -15 -15 -15 -16 -16 -16 -15 -15 -15 -16 -16 -15 -15 -16 -16 -16 -17 -17 -17 -16 -16 -16 -16 -16 -16 -16 -17 -17 -17 -17 -17 -17 -18 -18 -18 -18 -18
-17 -17 -17 -17 -17 -16 -17 -16 -16 -16 -15 -15 -16 -16 -15 -16 -16 -16 -15 -16 -16 -16 -16 -17 -17 -17 -17 -17 -17 -17 -18 -17 -17 -18 -17 -18 -18 -18 -18 -18 -18 -19 -19
-18 -18 -18 -18 -18 -18 -18 -18 -18 -18 -18 -18 -17 -17 -18 -17 -18 -17 -17 -17 -17 -18 -18 -17 -17 -18 -18 -18 -18 -18 -18 -18 -18 -18 -19 -19 -19 -19 -19 -19 -19 -18 -19
-18 -18 -19 -19 -19 -19 -19 -19 -18 -19 -19 -19 -19 -19 -18 -18 -18 -18 -18 -19 -18 -18 -18 -18 -18 -18 -19 -19 -19 -19 -19 -19 -19 -19 -19 -19 -19 -19 -19 -19 -19 -19 -19
-18 -18 -18 -19 -19 -20 -20 -20 -20 -20 -20 -20 -20 -20 -20 -20 -20 -20 -20 -20 -20 -19 -20 -19 -19 -19 -19 -20 -20 -20 -20 -20 -20 -20 -20 -20 -20 -20 -20 -20 -20 -20 -20
-18 -18 -18 -19 -20 -21 -21 -20 -20 -21 -21 -21 -21 -21 -21 -21 -21 -21 -21 -21 -21 -20 -21 -20 -20 -20 -21 -21 -21 -20 -20 -20 -20 -20 -21 -20 -20 -20 -20 -20 -20 -20 -20
-18 -18 -18 -19 -20 -21 -21 -22 -22 -21 -21 -22 -22 -22 -22 -22 -22 -22 -22 -22 -21 -21 -21 -21 -21 -21 -21 -21 -21 -21 -21 -21 -21 -21 -21 -21 -21 -20 -21 -21 -21 -21 -21
-18 -18 -18 -19 -20 -21 -23 -23 -23 -23 -22 -22 -22 -23 -22 -22 -22 -22 -22 -22 -22 -22 -21 -21 -21 -21 -21 -21 -21 -21 -21 -21 -21 -21 -21 -21 -21 -21 -21 -21 -21 -21 -21
-18 -19 -19 -19 -20 -21 -23 -24 -24 -24 -23 -23 -23 -23 -23 -23 -23 -23 -22 -22 -22 -21 -21 -21 -22 -21 -21 -21 -22 -21 -22 -22 -22 -22 -21 -21 -21 -21 -22 -21 -21 -21 -21
-19 -19 -20 -20 -21 -22 -23 -24 -25 -25 -25 -24 -24 -24 -23 -24 -24 -24 -23 -23 -23 -23 -22 -22 -22 -22 -22 -22 -22 -22 -22 -22 -22 -22 -21 -21 -22 -22 -22 -22 -22 -22 -22
-20 -20 -21 -21 -22 -22 -23 -24 -25 -26 -26 -26 -25 -25 -25 -25 -25 -25 -25 -24 -24 -24 -24 -23 -23 -23 -22 -22 -22 -22 -22 -22 -22 -22 -22 -22 -22 -22 -22 -22 -22 -22 -22
-21 -21 -22 -22 -23 -23 -24 -25 -26 -27 -27 -26 -26 -26 -26 -26 -26 -25 -25 -25 -25 -24 -24 -24 -24 -23 -23 -23 -23 -23 -23 -23 -22 -22 -22 -22 -22 -22 -22 -23 -23 -23 -22
-22 -22 -23 -24 -24 -25 -26 -27 -27 -28 -28 -28 -27 -27 -27 -27 -27 -27 -26 -26 -26 -25 -25 -25 -24 -24 -24 -24 -24 -23 -23 -23 -23 -23 -23 -23 -23 -23 -22 -23 -23 -23 -23
-23 -24 -24 -25 -26 -27 -28 -28 -28 -28 -28 -28 -28 -28 -28 -28 -28 -27 -27 -27 -27 -26 -26 -25 -25 -25 -25 -24 -24 -24 -24 -24 -24 -23 -23 -23 -23 -23 -23 -23 -23 -23 -23
-24 -25 -26 -26 -27 -28 -29 -29 -29 -29 -29 -29 -29 -29 -29 -28 -28 -28 -28 -28 -27 -27 -27 -26 -26 -25 -25 -25 -25 -25 -24 -24 -24 -24 -24 -24 -24 -23 -23 -23 -23 -23 -23
-25 -26 -27 -28 -29 -29 -29 -30 -30 -30 -30 -30 -30 -30 -30 -29 -29 -29 -28 -28 -28 -28 -27 -27 -27 -26 -26 -25 -25 -25 -25 -25 -25 -25 -24 -24 -24 -24 -24 -24 -24 -24 -24
-26 -27 -28 -29 -29 -30 -30 -30 -31 -31 -31 -31 -31 -31 -30 -30 -30 -29 -29 -29 -29 -29 -28 -28 -27 -27 -26 -26 -26 -26 -25 -25 -25 -25 -25 -25 -25 -25 -25 -25 -25 -25 -25
Height
5670 5676 5684 5689 5699 5705 5711 5720 5725 5729 5732 5736 5741 5749 5755 5758 5761 5764 5766 5767 5769 5773 5776 5779 5781 5783 5786 5787 5788 5789 5790 5789 5787 5786 5785 5782 5779 5777 5775 5772 5767 5762 5759
5671 5675 5680 5689 5696 5702 5708 5715 5720 5723 5727 5730 5734 5739 5743 5749 5752 5754 5756 5758 5761 5766 5769 5770 5772 5773 5775 5777 5778 5778 5778 5777 5776 5774 5773 5772 5770 5768 5765 5762 5759 5754 5752
5670 5673 5677 5686 5693 5701 5705 5710 5714 5713 5720 5724 5728 5731 5735 5739 5741 5744 5746 5750 5753 5755 5759 5761 5761 5763 5764 5766 5768 5769 5768 5767 5767 5764 5762 5761 5759 5757 5754 5752 5747 5743 5739
5669 5670 5676 5682 5690 5691 5699 5702 5708 5712 5716 5719 5722 5724 5727 5730 5731 5734 5737 5740 5743 5745 5744 5748 5752 5752 5755 5757 5758 5757 5757 5756 5756 5755 5753 5751 5748 5746 5743 5740 5735 5732 5728
5669 5672 5674 5679 5684 5689 5695 5698 5703 5708 5712 5712 5718 5719 5721 5723 5723 5725 5726 5733 5733 5735 5736 5739 5741 5742 5743 5745 5746 5744 5744 5744 5744 5744 5742 5740 5737 5736 5732 5729 5725 5722 5719
5670 5672 5674 5678 5681 5685 5689 5693 5698 5701 5704 5706 5709 5711 5711 5712 5715 5716 5718 5720 5723 5726 5726 5727 5728 5730 5732 5734 5734 5734 5733 5733 5732 5732 5731 5729 5726 5724 5719 5717 5714 5710 5707
5667 5671 5674 5677 5681 5684 5686 5688 5690 5692 5695 5697 5699 5701 5703 5705 5707 5709 5711 5713 5713 5714 5716 5717 5718 5719 5721 5721 5722 5722 5721 5720 5718 5719 5716 5715 5713 5710 5708 5705 5702 5700 5696
5668 5671 5673 5674 5677 5680 5683 5685 5687 5689 5690 5692 5693 5694 5695 5694 5696 5698 5699 5701 5702 5702 5704 5705 5706 5708 5708 5707 5709 5708 5707 5706 5705 5704 5703 5701 5699 5697 5695 5692 5690 5687 5685
5665 5666 5668 5671 5674 5675 5676 5678 5679 5681 5682 5683 5687 5688 5688 5685 5687 5688 5688 5689 5691 5691 5691 5692 5693 5693 5693 5694 5695 5694 5694 5694 5692 5691 5689 5686 5685 5683 5681 5679 5675 5673 5671
5658 5660 5662 5663 5665 5666 5668 5669 5669 5669 5670 5672 5673 5674 5677 5676 5678 5677 5676 5675 5678 5678 5680 5680 5679 5680 5680 5680 5679 5679 5678 5678 5677 5675 5674 5673 5672 5671 5669 5667 5664 5661 5658
5652 5653 5654 5655 5655 5656 5655 5655 5656 5658 5658 5660 5662 5665 5665 5662 5663 5663 5663 5664 5664 5664 5664 5664 5664 5663 5664 5664 5663 5663 5663 5663 5662 5659 5659 5658 5657 5657 5655 5652 5652 5650 5645
5646 5646 5646 5645 5645 5644 5642 5641 5641 5642 5644 5645 5645 5646 5646 5646 5646 5646 5646 5646 5646 5647 5648 5647 5648 5647 5648 5647 5647 5647 5647 5647 5646 5645 5644 5643 5642 5640 5639 5638 5636 5634 5633
5637 5635 5635 5634 5632 5631 5630 5629 5628 5626 5626 5627 5628 5629 5629 5630 5630 5629 5631 5630 5631 5631 5630 5630 5631 5632 5631 5631 5632 5631 5630 5631 5631 5631 5630 5629 5628 5629 5625 5624 5624 5624 5622
5629 5628 5625 5624 5622 5621 5620 5617 5614 5612 5611 5610 5610 5609 5610 5611 5611 5611 5611 5612 5613 5613 5613 5613 5614 5615 5616 5616 5616 5616 5616 5616 5615 5615 5616 5615 5613 5614 5613 5611 5611 5609 5609
5617 5614 5614 5611 5607 5606 5605 5603 5600 5599 5598 5595 5593 5592 5592 5593 5592 5593 5593 5594 5595 5595 5595 5597 5599 5600 5599 5599 5600 5602 5601 5601 5601 5601 5601 5601 5600 5600 5599 5599 5597 5598 5597
5608 5607 5602 5597 5594 5593 5590 5587 5584 5581 5580 5578 5577 5576 5575 5575 5576 5576 5576 5576 5577 5578 5577 5582 5583 5583 5584 5584 5583 5585 5586 5586 5588 5588 5585 5587 5586 5588 5586 5587 5586 5586 5586
5603 5598 5591 5585 5579 5574 5571 5570 5566 5564 5563 5560 5558 5556 5557 5557 5556 5556 5557 5558 5560 5560 5562 5563 5564 5567 5568 5568 5566 5568 5571 5571 5573 5575 5573 5575 5575 5575 5575 5575 5575 5575 5575
5593 5588 5582 5576 5568 5562 5557 5553 5551 5548 5544 5541 5540 5538 5536 5535 5536 5537 5537 5538 5539 5540 5543 5545 5547 5548 5550 5549 5550 5553 5556 5557 5558 5560 5561 5562 5562 5563 5564 5564 5564 5564 5566
5578 5573 5568 5562 5554 5547 5541 5536 5533 5531 5529 5526 5522 5519 5518 5516 5514 5515 5517 5519 5521 5523 5524 5527 5527 5529 5530 5532 5534 5537 5541 5543 5545 5546 5547 5548 5550 5550 5551 5551 5552 5553 5553
5567 5561 5554 5546 5537 5530 5525 5519 5514 5511 5510 5507 5504 5502 5499 5499 5497 5497 5497 5499 5502 5504 5506 5508 5511 5513 5514 5516 5519 5521 5525 5528 5529 5531 5532 5534 5535 5537 5538 5539 5539 5540 5539
5552 5545 5538 5530 5521 5514 5507 5501 5496 5493 5490 5487 5485 5482 5481 5480 5479 5479 5479 5480 5482 5485 5488 5490 5492 5493 5496 5499 5501 5504 5507 5510 5513 5515 5517 5518 5520 5522 5523 5524 5525 5525 5525
5535 5527 5519 5511 5502 5494 5487 5482 5478 5475 5472 5469 5466 5464 5463 5462 5462 5462 5462 5462 5464 5466 5469 5472 5475 5477 5478 5480 5483 5486 5489 5493 5495 5498 5500 5502 5504 5506 5507 5508 5508 5509 5510
5517 5507 5499 5491 5482 5475 5469 5465 5461 5458 5454 5452 5450 5448 5446 5445 5444 5444 5445 5446 5447 5448 5451 5454 5457 5460 5462 5464 5466 5469 5471 5474 5477 5480 5483 5485 5487 5488 5490 5491 5492 5493 5494
5500 5489 5481 5472 5464 5458 5453 5448 5444 5442 5439 5436 5434 5432 5430 5428 5427 5426 5426 5427 5429 5431 5434 5436 5439 5443 5446 5448 5451 5453 5456 5459 5461 5463 5466 5467 5469 5471 5473 5474 5475 5476 5477
5482 5473 5464 5455 5447 5442 5437 5433 5429 5426 5424 5421 5419 5417 5415 5413 5411 5409 5409 5410 5411 5413 5416 5419 5423 5426 5430 5433 5436 5439 5442 5444 5446 5448 5449 5451 5452 5454 5456 5458 5459 5461 5462
5463 5454 5446 5439 5432 5427 5423 5419 5416 5413 5411 5408 5406 5403 5401 5399 5396 5394 5393 5394 5395 5396 5398 5402 5407 5411 5414 5418 5421 5424 5427 5429 5431 5433 5434 5436 5437 5439 5441 5443 5445 5446 5447
Wind_Speed
20 19 36 34 47 49 52 42 44 47 50 58 57 58 57 58 58 57 56 60 57 42 31 37 42 34 35 32 33 33 32 32 33 33 31 32 33 36 38 38 40 40 40
18 25 36 40 35 44 43 46 39 45 55 52 57 59 63 60 57 59 62 63 60 39 33 42 41 33 35 38 39 37 36 35 34 33 35 35 36 39 40 43 44 42 43
18 14 31 36 45 40 44 46 32 22 37 44 45 45 49 49 51 50 52 52 46 41 47 36 29 36 41 42 43 39 38 38 37 36 36 38 39 42 43 45 45 44 45
13 17 20 25 37 39 33 41 42 42 41 40 40 47 50 45 46 49 50 50 40 34 42 45 41 41 45 43 45 43 43 42 42 41 40 41 41 43 43 45 45 47 48
12 14 12 16 16 14 9 12 7 12 10 15 33 29 39 32 38 44 57 57 41 26 29 31 38 42 45 46 45 47 47 47 46 44 44 44 45 46 44 45 46 49 50
13 14 20 16 13 10 15 18 23 22 20 17 10 18 16 20 24 22 26 23 24 32 37 35 37 42 43 46 49 50 50 48 47 47 47 46 47 48 46 48 49 48 49
10 11 13 15 16 17 15 17 14 17 15 18 21 26 26 31 31 34 38 39 40 35 37 36 38 42 46 48 49 49 49 47 48 50 50 49 47 45 47 51 50 49 49
10 13 14 17 19 19 22 23 24 25 23 33 33 30 34 38 44 43 43 41 39 37 39 41 44 47 48 48 50 48 47 49 51 50 51 49 47 47 50 50 49 48 48
14 12 17 24 26 29 30 29 29 28 30 31 38 38 41 38 43 42 39 39 42 44 46 46 46 47 49 50 49 48 48 50 52 52 50 49 48 50 51 49 50 47 46
16 16 19 21 23 23 25 26 26 24 32 36 47 47 47 38 38 40 34 45 45 48 48 48 46 47 47 48 50 52 52 51 51 49 48 49 49 51 52 51 51 48 46
22 23 27 28 31 32 35 36 38 39 37 39 38 43 50 46 46 49 49 52 51 53 54 55 54 53 54 54 53 53 52 51 50 49 47 48 50 53 53 52 52 50 49
23 27 30 34 37 37 39 41 42 42 44 44 44 52 52 56 53 59 59 59 58 58 58 57 56 54 54 54 53 53 52 51 49 48 49 51 51 48 50 49 49 47 46
23 25 29 33 35 38 41 44 47 48 48 47 49 52 55 57 58 59 60 58 58 58 58 57 56 56 56 54 52 51 51 51 51 52 53 50 50 52 50 48 46 44 44
26 31 32 34 34 35 42 46 46 48 50 51 53 54 55 55 56 57 57 57 57 57 57 56 56 55 54 53 54 54 52 51 50 50 49 51 51 50 47 44 45 42 42
36 39 43 46 44 37 35 39 40 47 53 54 54 54 55 55 55 55 55 56 56 55 56 54 53 52 50 51 52 52 52 52 51 49 49 48 47 45 44 42 41 42 41
40 43 49 53 54 50 45 36 38 43 45 53 59 58 56 56 54 51 51 52 52 54 55 53 53 54 54 54 54 55 54 51 48 47 45 45 43 44 41 41 41 40 40
43 45 50 56 62 59 47 37 35 37 44 49 51 54 52 53 54 55 57 57 51 54 57 57 55 51 53 56 53 51 51 48 46 45 42 45 45 43 42 43 42 41 40
47 49 52 58 65 64 56 46 38 39 45 48 51 55 59 63 63 59 59 50 49 60 62 59 56 57 58 57 51 53 51 49 47 45 43 47 47 46 43 43 41 40 39
51 57 61 60 66 67 65 56 41 38 41 47 52 54 56 59 60 56 60 61 61 62 56 51 52 54 55 57 56 58 56 51 50 50 50 50 49 46 44 42 40 40 38
51 56 60 62 69 70 68 64 52 43 42 45 51 53 52 54 54 57 58 58 58 55 51 57 59 53 54 56 55 54 57 55 55 54 52 51 50 47 44 43 41 40 38
51 55 59 64 69 68 66 60 50 47 43 42 46 51 52 48 49 49 52 56 54 52 54 53 52 52 55 55 55 54 52 52 56 56 51 50 50 50 47 45 44 42 40
53 58 61 64 65 64 62 54 47 46 42 42 44 46 49 50 47 45 46 48 55 55 50 49 54 54 52 50 51 52 51 52 52 52 52 51 52 53 51 48 46 44 42
56 60 61 60 61 61 55 49 45 43 41 41 44 45 47 50 50 49 47 46 48 53 52 50 50 50 49 50 51 50 50 51 53 54 53 52 52 52 51 50 47 45 43
59 60 58 58 59 56 50 46 43 42 42 42 43 44 45 48 50 50 50 47 45 49 52 49 49 48 48 47 46 46 48 49 51 52 52 52 52 52 51 50 48 45 43
63 60 58 57 55 51 46 43 40 39 39 40 41 42 43 43 45 47 47 44 45 46 48 52 50 48 48 48 47 46 45 45 45 45 46 47 49 49 48 47 44 42 41
64 59 56 53 51 47 43 40 37 37 38 38 39 38 39 39 39 38 37 39 42 42 45 46 47 47 43 47 48 47 47 46 44 44 43 42 41 42 42 43 44 44 43
Wind_Direction
203 243 220 211 207 210 214 213 220 226 223 227 227 233 238 240 247 251 249 256 259 252 248 241 249 229 224 225 236 244 251 255 257 260 266 271 276 283 285 289 288 289 291
237 235 198 193 197 199 200 212 216 224 232 239 230 235 241 247 253 257 255 256 260 247 258 262 252 237 227 230 236 245 249 256 260 259 264 269 274 279 283 286 286 290 295
250 221 196 209 208 214 213 215 202 206 227 234 234 241 246 247 253 252 253 260 260 268 259 246 244 235 230 234 241 248 253 258 261 262 268 270 275 278 281 283 287 290 291
151 150 186 204 212 224 218 215 227 230 237 244 240 239 245 259 258 256 253 254 248 262 248 245 238 238 240 245 248 251 256 260 262 264 268 271 274 278 283 285 288 290 290
199 265 316 293 321 330 272 195 248 273 243 220 229 244 244 246 253 258 246 253 244 237 251 238 235 236 242 247 248 251 256 262 262 265 269 272 275 277 282 287 289 291 291
323 302 324 318 316 307 302 294 295 294 292 296 272 244 245 245 227 225 230 257 263 250 245 243 238 239 239 244 250 255 258 262 260 265 273 276 278 279 282 285 289 290 290
252 281 284 284 281 271 267 255 246 231 231 230 225 227 233 237 231 236 247 253 260 256 252 246 251 248 248 250 253 256 260 260 262 266 273 275 278 280 282 286 290 289 290
269 259 260 258 254 253 250 247 234 238 239 223 226 228 233 220 226 236 244 247 251 251 254 256 255 253 253 254 256 259 262 263 265 269 273 276 276 278 282 286 287 288 289
308 294 277 261 258 257 256 256 245 238 245 244 241 231 232 232 238 236 246 248 252 253 253 253 254 254 255 257 261 265 267 268 272 274 277 277 277 279 280 283 285 286 287
251 250 243 246 249 254 251 255 255 259 252 242 234 227 229 235 241 236 234 252 252 254 257 258 259 261 261 263 263 265 267 269 272 274 274 276 278 279 281 282 285 285 282
264 259 251 247 245 245 246 249 248 247 243 243 238 243 247 255 259 260 259 256 256 255 254 255 255 256 258 261 264 266 268 269 270 269 270 273 276 278 280 283 285 282 282
273 268 265 264 262 259 255 254 253 252 249 246 237 242 242 244 248 249 250 251 253 254 256 257 260 262 262 263 263 265 267 268 267 267 271 274 275 275 280 281 280 280 282
322 313 294 278 271 267 266 265 263 261 258 254 251 250 249 251 248 250 256 257 259 261 261 261 261 262 263 262 264 264 266 264 266 270 273 271 274 278 279 280 279 281 282
311 310 309 305 300 292 281 273 268 265 263 262 259 256 256 256 256 256 256 258 260 262 262 261 262 263 263 264 264 263 264 267 270 270 270 273 277 279 278 277 277 277 277
315 313 309 311 311 305 293 281 278 275 269 266 264 261 259 257 257 257 259 260 259 259 260 261 261 261 261 261 262 265 268 270 270 272 274 275 275 275 274 274 274 276 277
309 305 306 308 309 308 305 291 280 274 271 267 264 264 262 262 256 252 254 257 259 262 262 261 259 259 261 264 267 267 266 271 271 272 272 273 274 273 274 274 274 274 274
301 301 301 302 302 309 312 299 282 275 269 266 264 260 256 253 255 257 256 255 254 255 259 257 257 260 261 262 262 260 264 264 269 272 274 273 272 270 271 271 272 272 272
293 293 291 290 294 303 310 307 290 274 268 267 264 264 262 265 263 255 251 252 255 253 254 254 256 256 258 253 256 260 262 263 265 266 275 275 271 268 268 268 269 270 268
286 284 286 290 292 297 303 305 294 275 268 265 267 265 262 263 264 261 259 261 261 258 257 259 256 251 252 254 255 255 256 256 261 267 274 272 267 265 264 264 266 266 266
289 288 288 289 291 295 298 300 299 287 280 268 266 270 270 266 264 262 259 258 260 259 262 259 259 256 254 254 255 253 251 256 264 269 269 265 261 259 259 261 263 264 265
289 289 289 289 292 296 297 298 295 289 286 276 271 267 269 272 270 265 262 259 258 260 259 255 252 251 253 254 257 257 260 259 261 263 261 259 259 258 257 260 263 263 264
295 295 294 294 296 296 297 299 295 290 286 275 269 268 268 270 271 268 263 261 256 254 252 254 254 254 254 253 252 253 252 253 254 254 255 256 259 259 258 259 261 262 263
301 299 299 299 298 298 300 299 293 289 283 277 272 271 270 272 273 271 266 260 259 255 254 254 254 252 250 252 253 253 253 253 252 253 254 255 256 256 257 260 259 260 261
306 303 303 301 299 301 301 298 292 288 283 280 278 277 276 274 273 272 272 272 264 256 253 250 251 252 254 252 251 252 252 253 253 253 254 254 255 256 258 258 257 257 257
310 309 307 303 302 302 300 296 293 289 286 284 283 282 282 281 276 274 273 269 259 252 252 252 251 249 251 251 249 252 253 253 254 254 255 256 255 255 256 256 255 256 256
313 310 308 304 302 301 298 294 290 287 285 286 288 287 289 291 289 280 269 262 258 257 254 249 247 249 249 250 251 251 251 252 254 256 256 257 258 257 257 258 259 259 257